Location: Chassagnes
(44.4047°N, 4.1657°E)
Time: 12:02:12
(UTC+00:00)

MOS 1 Rocket - Pass Details

Date: 27 October 2020
Orbit: 615 x 829 km, 97.4° (Epoch: 23 November)

Event Time Altitude Azimuth Distance (km) Brightness Sun altitude
Rises 18:02:58 0° 20° (NNE) 3,034 6.4 -15.5°
Reaches altitude 10° 18:05:17 10° 28° (NNE) 2,147 5.5 -15.9°
Maximum altitude 18:09:42 39° 97° (E) 1,074 3.8 -16.7°
Drops below altitude 10° 18:14:20 10° 166° (SSE) 2,260 5.8 -17.5°
Sets 18:16:49 0° 174° (S) 3,215 6.7 -18.0°
